Regional Weather Roundup
Issued by NWS Charleston, WV

Home | Current Version | Previous Version | Text Only | Print | Product List | Glossary Off
Versions: 1 2 3 4 5 6 7 8 9 10 11 12 13 14 15 16 17 18 19 20 21 22 23 24 25 26 27 28 29 30 31 32 33 34 35 36 37 38 39 40 41 42 43 44 45 46 47 48 49 50

827
ASUS41 KRLX 121010
RWRRLX
West Virginia Regional Weather Roundup
National Weather Service Charleston WV
500 AM EST FRI FEB 12 2016

Note: "fair" indicates few or no clouds below 12,000 feet with no
significant weather and/or obstructions to visibility.

WVZ003-121100-
Northern Panhandle of West Virginia

CITY           SKY/WX    TMP DP  RH WIND       PRES   REMARKS
WHEELING         N/A      8   4  83 S7        30.18S WCI  -3
$$

WVZ009-121100-
Northwest West Virginia

CITY           SKY/WX    TMP DP  RH WIND       PRES   REMARKS
PARKERSBURG      N/A      3  -2  79 CALM      30.25F
$$

WVZ006-121100-
Western West Virginia

CITY           SKY/WX    TMP DP  RH WIND       PRES   REMARKS
HUNTINGTON     CLOUDY    17   6  62 E3        30.21F
$$

WVZ015-121100-
West Central West Virginia

CITY           SKY/WX    TMP DP  RH WIND       PRES   REMARKS
CHARLESTON       N/A     12   8  84 CALM      30.21F
$$

WVZ022-031-121100-
North Central West Virginia

CITY           SKY/WX    TMP DP  RH WIND       PRES   REMARKS
CLARKSBURG       N/A      0  -3  87 CALM      30.21S
MORGANTOWN       N/A      2  -5  72 CALM      30.20F
$$

WVZ025-035-042-045-121100-
Southern West Virginia

CITY           SKY/WX    TMP DP  RH WIND       PRES   REMARKS
BECKLEY        MOCLDY    13   4  67 CALM      30.09F
LOGAN          CLOUDY    18  10  73 CALM      30.14S
BLUEFIELD      CLOUDY    12   6  77 CALM      30.07F
LEWISBURG        N/A     11   6  80 N7        30.12F WCI   0
$$

WVZ047-121100-
Northern Mountains of West Virginia

CITY           SKY/WX    TMP DP  RH WIND       PRES   REMARKS
ELKINS           N/A     -1  -6  79 CALM      30.16F
$$

WVZ052-121100-
Eastern Panhandle of West Virginia

CITY           SKY/WX    TMP DP  RH WIND       PRES   REMARKS
MARTINSBURG      N/A      9   2  73 CALM      30.27F
PETERSBURG       N/A     10   5  80 CALM      30.25F
$$




USA.gov is the U.S. government's official web portal to all federal, state and local government web resources and services.